| time (UTC) | temp C | wind direction | speed KPH | gust KPH | rain 1hr cm | rain 24hr cm | rain mn cm | humidity % | barometer mb |
| 20260503200344 | 20 | 43 | 1.6 | 6.4 | 0.00 | 0.00 | 0.00 | 38 | 1017.2 |
| 20260503195842 | 21 | 347 | 3.2 | 3.2 | 0.00 | 0.00 | 0.00 | 36 | 1017.2 |
| 20260503195338 | 21 | 91 | 1.6 | 3.2 | 0.00 | 0.00 | 0.00 | 40 | 1017.4 |
| 20260503194835 | 22 | 43 | 3.2 | 4.8 | 0.00 | 0.00 | 0.00 | 34 | 1017.6 |
| 20260503194331 | 22 | 44 | 1.6 | 3.2 | 0.00 | 0.00 | 0.00 | 35 | 1017.6 |
| 20260503193828 | 21 | 24 | 1.6 | 1.6 | 0.00 | 0.00 | 0.00 | 38 | 1017.6 |
| 20260503193324 | 21 | 315 | 3.2 | 6.4 | 0.00 | 0.00 | 0.00 | 35 | 1017.8 |
| 20260503192820 | 21 | 21 | 1.6 | 3.2 | 0.00 | 0.00 | 0.00 | 39 | 1017.9 |
| 20260503192315 | 21 | 306 | 3.2 | 4.8 | 0.00 | 0.00 | 0.00 | 35 | 1018.0 |
| 20260503191811 | 21 | 351 | 1.6 | 3.2 | 0.00 | 0.00 | 0.00 | 35 | 1018.0 |
| 20260503191309 | 21 | 347 | 3.2 | 3.2 | 0.00 | 0.00 | 0.00 | 38 | 1018.2 |
| 20260503190806 | 21 | 330 | 3.2 | 4.8 | 0.00 | 0.00 | 0.00 | 37 | 1018.6 |
| 20260503190303 | 21 | 305 | 3.2 | 6.4 | 0.00 | 0.00 | 0.00 | 35 | 1018.5 |
| 20260503185800 | 21 | 329 | 1.6 | 3.2 | 0.00 | 0.00 | 0.00 | 40 | 1018.5 |
| 20260503185255 | 20 | 296 | 3.2 | 3.2 | 0.00 | 0.00 | 0.00 | 40 | 1018.7 |
| 20260503184755 | 20 | 40 | 1.6 | 3.2 | 0.00 | 0.00 | 0.00 | 37 | 1018.5 |
| 20260503184252 | 21 | 256 | 1.6 | 4.8 | 0.00 | 0.00 | 0.00 | 36 | 1018.8 |
| 20260503183748 | 20 | 27 | 3.2 | 3.2 | 0.00 | 0.00 | 0.00 | 39 | 1018.9 |
| 20260503183246 | 20 | 329 | 1.6 | 6.4 | 0.00 | 0.00 | 0.00 | 35 | 1018.9 |
| 20260503182743 | 21 | 22 | 6.4 | 11.3 | 0.00 | 0.00 | 0.00 | 33 | 1018.9 |
| 20260503182242 | 21 | 320 | 1.6 | 6.4 | 0.00 | 0.00 | 0.00 | 37 | 1018.8 |
| 20260503181738 | 21 | 349 | 1.6 | 3.2 | 0.00 | 0.00 | 0.00 | 37 | 1019.2 |
| 20260503181235 | 21 | 309 | 4.8 | 6.4 | 0.00 | 0.00 | 0.00 | 36 | 1019.0 |
| 20260503180731 | 20 | 22 | 1.6 | 3.2 | 0.00 | 0.00 | 0.00 | 36 | 1019.1 |
| 20260503180230 | 20 | 22 | 4.8 | 6.4 | 0.00 | 0.00 | 0.00 | 33 | 1019.0 |
| 20260503175726 | 20 | 4 | 3.2 | 4.8 | 0.00 | 0.00 | 0.00 | 37 | 1019.2 |
| 20260503175224 | 20 | 32 | 1.6 | 6.4 | 0.00 | 0.00 | 0.00 | 37 | 1019.1 |
| 20260503174720 | 21 | 58 | 1.6 | 4.8 | 0.00 | 0.00 | 0.00 | 33 | 1019.2 |
| 20260503174218 | 21 | 273 | 1.6 | 3.2 | 0.00 | 0.00 | 0.00 | 39 | 1019.2 |
| 20260503173713 | 20 | 298 | 3.2 | 4.8 | 0.00 | 0.00 | 0.00 | 37 | 1019.3 |
| 20260503173209 | 20 | 77 | 0.0 | 3.2 | 0.00 | 0.00 | 0.00 | 37 | 1019.3 |
| 20260503172706 | 20 | 44 | 0.0 | 4.8 | 0.00 | 0.00 | 0.00 | 31 | 1019.3 |
| 20260503172203 | 20 | 310 | 1.6 | 3.2 | 0.00 | 0.00 | 0.00 | 37 | 1019.5 |
| 20260503171700 | 20 | 349 | 1.6 | 4.8 | 0.00 | 0.00 | 0.00 | 37 | 1019.2 |
| 20260503171157 | 20 | 312 | 1.6 | 3.2 | 0.00 | 0.00 | 0.00 | 43 | 1019.3 |
| 20260503170654 | 20 | 25 | 3.2 | 3.2 | 0.00 | 0.00 | 0.00 | 40 | 1019.4 |
| 20260503170151 | 20 | 58 | 1.6 | 6.4 | 0.00 | 0.00 | 0.00 | 37 | 1019.4 |
| 20260503160112 | 18 | 60 | 0.0 | 1.6 | 0.00 | 0.00 | 0.00 | 42 | 1020.4 |
| 20260503150542 | 18 | 64 | 0.0 | 1.6 | 0.00 | 0.00 | 0.00 | 48 | 1020.6 |
| 20260503130932 | 11 | 111 | 0.0 | 1.6 | 0.00 | 0.00 | 0.00 | 83 | 1020.0 |
| 20260503130430 | 11 | 52 | 0.0 | 1.6 | 0.00 | 0.00 | 0.00 | 86 | 1020.1 |
| 20260503110332 | 8 | 35 | 0.0 | 0.0 | 0.00 | 0.00 | 0.00 | 98 | 1018.8 |
| 20260503100258 | 7 | 33 | 0.0 | 0.0 | 0.00 | 0.00 | 0.00 | 98 | 1018.1 |
| 20260503090217 | 7 | 33 | 0.0 | 0.0 | 0.00 | 0.00 | 0.00 | 97 | 1017.4 |
| 20260503081144 | 8 | 33 | 0.0 | 0.0 | 0.00 | 0.00 | 0.00 | 97 | 1016.7 |
| 20260503080640 | 8 | 33 | 0.0 | 0.0 | 0.00 | 0.00 | 0.00 | 97 | 1016.6 |
| 20260503080137 | 8 | 33 | 0.0 | 0.0 | 0.00 | 0.00 | 0.00 | 97 | 1016.7 |
| 20260503072614 | 8 | 33 | 0.0 | 0.0 | 0.00 | 0.00 | 0.00 | 97 | 1016.4 |
| 20260503072111 | 8 | 33 | 0.0 | 0.0 | 0.00 | 0.00 | 0.00 | 97 | 1016.4 |
| 20260503071608 | 8 | 33 | 0.0 | 0.0 | 0.00 | 0.00 | 0.00 | 97 | 1016.2 |
| 20260503071105 | 8 | 33 | 0.0 | 0.0 | 0.00 | 0.00 | 0.00 | 97 | 1016.4 |
| 20260503070601 | 8 | 33 | 0.0 | 0.0 | 0.00 | 0.00 | 0.00 | 97 | 1016.2 |
| 20260503055020 | 10 | 33 | 0.0 | 0.0 | 0.00 | 0.00 | 0.00 | 96 | 1016.3 |
| 20260503054516 | 10 | 33 | 0.0 | 0.0 | 0.00 | 0.00 | 0.00 | 95 | 1016.1 |
| 20260503054014 | 10 | 33 | 0.0 | 0.0 | 0.00 | 0.00 | 0.00 | 95 | 1015.9 |
| 20260503053512 | 10 | 33 | 0.0 | 0.0 | 0.00 | 0.00 | 0.00 | 95 | 1015.8 |
| 20260503053009 | 10 | 33 | 0.0 | 0.0 | 0.00 | 0.00 | 0.00 | 95 | 1016.0 |
| 20260503052506 | 10 | 33 | 0.0 | 0.0 | 0.00 | 0.00 | 0.00 | 95 | 1015.8 |
| 20260503052001 | 10 | 33 | 0.0 | 0.0 | 0.00 | 0.00 | 0.00 | 95 | 1015.7 |
| 20260503051457 | 10 | 32 | 0.0 | 0.0 | 0.00 | 0.00 | 0.00 | 94 | 1015.9 |
| 20260503050955 | 10 | 32 | 0.0 | 0.0 | 0.00 | 0.00 | 0.00 | 94 | 1016.0 |
| 20260503050450 | 11 | 32 | 0.0 | 0.0 | 0.00 | 0.00 | 0.00 | 93 | 1015.7 |
| 20260503045949 | 11 | 32 | 0.0 | 0.0 | 0.00 | 0.00 | 0.00 | 93 | 1015.9 |
| 20260503045446 | 11 | 32 | 0.0 | 0.0 | 0.00 | 0.00 | 0.00 | 93 | 1015.9 |
| 20260503044942 | 11 | 30 | 0.0 | 0.0 | 0.00 | 0.00 | 0.00 | 93 | 1015.8 |
| 20260503044439 | 11 | 30 | 0.0 | 1.6 | 0.00 | 0.00 | 0.00 | 92 | 1015.6 |
| 20260503043937 | 11 | 31 | 0.0 | 1.6 | 0.00 | 0.00 | 0.00 | 92 | 1015.4 |
| 20260503043433 | 12 | 35 | 0.0 | 0.0 | 0.00 | 0.00 | 0.00 | 92 | 1015.6 |
| 20260503042929 | 12 | 46 | 0.0 | 0.0 | 0.00 | 0.00 | 0.00 | 93 | 1015.7 |
| 20260503042426 | 12 | 46 | 0.0 | 0.0 | 0.00 | 0.00 | 0.00 | 93 | 1015.4 |
| 20260503041923 | 12 | 45 | 0.0 | 0.0 | 0.00 | 0.00 | 0.00 | 93 | 1015.5 |
| 20260503041420 | 12 | 45 | 0.0 | 0.0 | 0.00 | 0.00 | 0.00 | 93 | 1015.4 |
| 20260503040917 | 12 | 45 | 0.0 | 1.6 | 0.00 | 0.00 | 0.00 | 93 | 1015.3 |
| 20260503040414 | 12 | 47 | 0.0 | 0.0 | 0.00 | 0.00 | 0.00 | 92 | 1015.6 |
| 20260503035912 | 12 | 47 | 0.0 | 0.0 | 0.00 | 1.07 | 1.07 | 92 | 1015.4 |
| 20260503035409 | 12 | 47 | 0.0 | 0.0 | 0.00 | 1.07 | 1.07 | 92 | 1015.6 |
| 20260503034906 | 12 | 47 | 0.0 | 0.0 | 0.00 | 1.07 | 1.07 | 91 | 1015.3 |
| 20260503034403 | 12 | 63 | 0.0 | 0.0 | 0.00 | 1.07 | 1.07 | 91 | 1015.4 |
| 20260503033900 | 12 | 42 | 0.0 | 0.0 | 0.00 | 1.07 | 1.07 | 91 | 1015.5 |
| 20260503033358 | 12 | 46 | 0.0 | 0.0 | 0.00 | 1.07 | 1.07 | 91 | 1015.6 |
| 20260503032855 | 12 | 46 | 0.0 | 0.0 | 0.00 | 1.07 | 1.07 | 91 | 1015.5 |
| 20260503032354 | 12 | 46 | 0.0 | 0.0 | 0.00 | 1.07 | 1.07 | 91 | 1015.4 |
| 20260503031851 | 12 | 50 | 0.0 | 0.0 | 0.00 | 1.07 | 1.07 | 91 | 1015.3 |
| 20260503031349 | 12 | 55 | 0.0 | 0.0 | 0.00 | 1.07 | 1.07 | 91 | 1015.1 |
| 20260503030845 | 12 | 54 | 0.0 | 0.0 | 0.00 | 1.07 | 1.07 | 90 | 1015.3 |
| 20260503030341 | 12 | 40 | 0.0 | 1.6 | 0.00 | 1.07 | 1.07 | 90 | 1015.2 |
| 20260503025838 | 11 | 26 | 3.2 | 6.4 | 0.00 | 1.07 | 1.07 | 91 | 1015.2 |
| 20260503025336 | 11 | 67 | 0.0 | 1.6 | 0.00 | 1.07 | 1.07 | 93 | 1015.0 |
| 20260503024833 | 11 | 75 | 0.0 | 1.6 | 0.00 | 1.07 | 1.07 | 94 | 1015.3 |
| 20260503024329 | 11 | 47 | 0.0 | 0.0 | 0.00 | 1.07 | 1.07 | 95 | 1015.2 |
| 20260503023826 | 11 | 45 | 0.0 | 0.0 | 0.00 | 1.07 | 1.07 | 95 | 1015.2 |
| 20260503023323 | 11 | 45 | 0.0 | 0.0 | 0.00 | 1.07 | 1.07 | 95 | 1015.2 |
| 20260503022820 | 11 | 45 | 0.0 | 0.0 | 0.00 | 1.07 | 1.07 | 95 | 1015.1 |
| 20260503022320 | 11 | 45 | 0.0 | 0.0 | 0.00 | 1.07 | 1.07 | 95 | 1015.1 |
| 20260503021816 | 11 | 46 | 0.0 | 0.0 | 0.00 | 1.07 | 1.07 | 95 | 1014.6 |
| 20260503021313 | 11 | 46 | 0.0 | 0.0 | 0.00 | 1.07 | 1.07 | 94 | 1014.5 |
| 20260503020811 | 11 | 46 | 0.0 | 0.0 | 0.00 | 1.07 | 1.07 | 94 | 1014.4 |
| 20260503020308 | 11 | 46 | 0.0 | 0.0 | 0.00 | 1.07 | 1.07 | 94 | 1014.3 |
| 20260503015804 | 11 | 46 | 0.0 | 0.0 | 0.00 | 1.07 | 1.07 | 94 | 1014.3 |
| 20260503015302 | 11 | 46 | 0.0 | 0.0 | 0.00 | 1.07 | 1.07 | 94 | 1014.1 |
| 20260503014757 | 11 | 46 | 0.0 | 0.0 | 0.00 | 1.07 | 1.07 | 94 | 1014.1 |
| 20260503014255 | 11 | 46 | 0.0 | 0.0 | 0.00 | 1.07 | 1.07 | 94 | 1014.1 |
| 20260503013752 | 11 | 45 | 0.0 | 0.0 | 0.00 | 1.07 | 1.07 | 94 | 1013.8 |
| 20260503013249 | 11 | 45 | 0.0 | 0.0 | 0.00 | 1.07 | 1.07 | 94 | 1014.0 |
| 20260503012747 | 11 | 45 | 0.0 | 0.0 | 0.00 | 1.07 | 1.07 | 94 | 1014.0 |
| 20260503012244 | 11 | 45 | 0.0 | 0.0 | 0.00 | 1.07 | 1.07 | 93 | 1013.8 |
| 20260503011740 | 11 | 45 | 0.0 | 0.0 | 0.00 | 1.07 | 1.07 | 93 | 1013.4 |
| 20260503011238 | 11 | 45 | 0.0 | 0.0 | 0.00 | 1.07 | 1.07 | 93 | 1013.4 |
| 20260503010733 | 11 | 45 | 0.0 | 0.0 | 0.00 | 1.07 | 1.07 | 93 | 1013.6 |
| 20260503010231 | 11 | 45 | 0.0 | 0.0 | 0.00 | 1.07 | 1.07 | 93 | 1013.4 |
| 20260503005728 | 11 | 45 | 0.0 | 0.0 | 0.00 | 1.07 | 1.07 | 93 | 1013.4 |
| 20260503005225 | 11 | 45 | 0.0 | 0.0 | 0.00 | 1.07 | 1.07 | 92 | 1013.6 |
| 20260503004721 | 11 | 45 | 0.0 | 0.0 | 0.00 | 1.07 | 1.07 | 92 | 1013.4 |
| 20260503004220 | 11 | 45 | 0.0 | 0.0 | 0.00 | 1.07 | 1.07 | 92 | 1013.1 |
| 20260503003717 | 11 | 45 | 0.0 | 0.0 | 0.00 | 1.07 | 1.07 | 91 | 1013.1 |
| 20260503003214 | 11 | 45 | 0.0 | 0.0 | 0.00 | 1.07 | 1.07 | 90 | 1013.1 |
| 20260503002710 | 11 | 45 | 0.0 | 0.0 | 0.00 | 1.07 | 1.07 | 89 | 1013.0 |
| 20260503002207 | 11 | 45 | 0.0 | 0.0 | 0.00 | 1.07 | 1.07 | 88 | 1013.0 |
| 20260503001703 | 12 | 45 | 0.0 | 0.0 | 0.00 | 1.07 | 1.07 | 87 | 1012.7 |
| 20260503001200 | 12 | 45 | 0.0 | 0.0 | 0.00 | 1.07 | 1.07 | 86 | 1012.7 |
| 20260503000658 | 12 | 45 | 0.0 | 0.0 | 0.00 | 1.07 | 1.07 | 86 | 1012.9 |
| 20260503000155 | 12 | 45 | 0.0 | 0.0 | 0.00 | 1.07 | 1.07 | 85 | 1012.7 |
| 20260502235651 | 12 | 45 | 0.0 | 0.0 | 0.00 | 1.07 | 1.07 | 84 | 1012.7 |
| 20260502235149 | 12 | 45 | 0.0 | 0.0 | 0.00 | 1.07 | 1.07 | 83 | 1012.6 |
| 20260502234645 | 13 | 45 | 0.0 | 0.0 | 0.00 | 1.07 | 1.07 | 81 | 1012.4 |
| 20260502234143 | 13 | 46 | 0.0 | 0.0 | 0.00 | 1.07 | 1.07 | 81 | 1012.6 |
| 20260502233638 | 13 | 42 | 0.0 | 0.0 | 0.00 | 1.07 | 1.07 | 80 | 1012.5 |
| 20260502233135 | 13 | 24 | 0.0 | 1.6 | 0.00 | 1.07 | 1.07 | 80 | 1012.3 |
| 20260502232631 | 14 | 48 | 0.0 | 0.0 | 0.00 | 1.07 | 1.07 | 76 | 1012.0 |
| 20260502232129 | 14 | 47 | 0.0 | 1.6 | 0.00 | 1.07 | 1.07 | 73 | 1012.2 |
| 20260502231625 | 14 | 45 | 0.0 | 0.0 | 0.00 | 1.07 | 1.07 | 75 | 1012.1 |
| 20260502231124 | 14 | 45 | 0.0 | 0.0 | 0.00 | 1.07 | 1.07 | 74 | 1012.0 |
| 20260502230621 | 14 | 356 | 0.0 | 1.6 | 0.00 | 1.07 | 1.07 | 72 | 1011.8 |
| 20260502230120 | 15 | 68 | 0.0 | 1.6 | 0.00 | 1.07 | 1.07 | 71 | 1012.0 |
| 20260502225615 | 15 | 53 | 0.0 | 0.0 | 0.00 | 1.07 | 1.07 | 71 | 1012.2 |
| 20260502225112 | 15 | 356 | 1.6 | 1.6 | 0.00 | 1.07 | 1.07 | 69 | 1012.0 |
| 20260502224608 | 15 | 83 | 0.0 | 0.0 | 0.00 | 1.07 | 1.07 | 73 | 1012.2 |
| 20260502224105 | 15 | 17 | 0.0 | 1.6 | 0.00 | 1.07 | 1.07 | 71 | 1012.1 |
| 20260502223603 | 14 | 62 | 0.0 | 3.2 | 0.00 | 1.07 | 1.07 | 72 | 1012.2 |
| 20260502223102 | 14 | 31 | 0.0 | 0.0 | 0.00 | 1.07 | 1.07 | 72 | 1012.0 |
| 20260502222558 | 14 | 28 | 3.2 | 3.2 | 0.00 | 1.07 | 1.07 | 71 | 1012.1 |
| 20260502222054 | 15 | 27 | 0.0 | 3.2 | 0.00 | 1.07 | 1.07 | 70 | 1012.3 |
| 20260502221550 | 15 | 12 | 3.2 | 9.7 | 0.00 | 1.07 | 1.07 | 70 | 1012.4 |
| 20260502221048 | 15 | 8 | 6.4 | 9.7 | 0.00 | 1.07 | 1.07 | 69 | 1012.1 |
| 20260502220543 | 15 | 317 | 1.6 | 1.6 | 0.00 | 1.07 | 1.07 | 69 | 1012.0 |
| 20260502220040 | 15 | 99 | 1.6 | 3.2 | 0.00 | 1.07 | 1.07 | 70 | 1012.0 |
| 20260502215537 | 15 | 24 | 0.0 | 4.8 | 0.00 | 1.07 | 1.07 | 69 | 1012.2 |
| 20260502215034 | 14 | 345 | 1.6 | 4.8 | 0.00 | 1.07 | 1.07 | 70 | 1012.0 |
| 20260502214531 | 14 | 2 | 3.2 | 6.4 | 0.00 | 1.07 | 1.07 | 71 | 1012.3 |
| 20260502214029 | 14 | 302 | 3.2 | 4.8 | 0.00 | 1.07 | 1.07 | 69 | 1012.1 |
| 20260502213525 | 14 | 32 | 0.0 | 6.4 | 0.00 | 1.07 | 1.07 | 72 | 1012.0 |
| 20260502213023 | 14 | 333 | 0.0 | 1.6 | 0.00 | 1.07 | 1.07 | 73 | 1011.8 |
| 20260502212522 | 14 | 8 | 0.0 | 0.0 | 0.00 | 1.07 | 1.07 | 74 | 1012.1 |
| 20260502212019 | 14 | 297 | 3.2 | 4.8 | 0.00 | 1.07 | 1.07 | 70 | 1011.9 |
| 20260502211515 | 14 | 68 | 0.0 | 1.6 | 0.00 | 1.07 | 1.07 | 72 | 1012.0 |
| 20260502211012 | 14 | 296 | 1.6 | 3.2 | 0.00 | 1.07 | 1.07 | 70 | 1011.7 |
| 20260502210509 | 13 | 28 | 0.0 | 1.6 | 0.00 | 1.07 | 1.07 | 74 | 1011.9 |
| 20260502210006 | 13 | 7 | 1.6 | 3.2 | 0.00 | 1.07 | 1.07 | 72 | 1011.8 |
| 20260502205502 | 13 | 7 | 4.8 | 4.8 | 0.00 | 1.07 | 1.07 | 72 | 1011.9 |
| 20260502204959 | 14 | 54 | 1.6 | 6.4 | 0.00 | 1.07 | 1.07 | 73 | 1011.9 |
| 20260502204456 | 14 | 15 | 0.0 | 1.6 | 0.00 | 1.07 | 1.07 | 71 | 1011.9 |
| 20260502203954 | 14 | 21 | 0.0 | 3.2 | 0.00 | 1.07 | 1.07 | 72 | 1012.1 |
| 20260502203451 | 14 | 359 | 0.0 | 3.2 | 0.00 | 1.07 | 1.07 | 73 | 1012.1 |
| 20260502202947 | 14 | 1 | 6.4 | 6.4 | 0.00 | 1.07 | 1.07 | 72 | 1012.1 |
| 20260502202444 | 14 | 19 | 3.2 | 4.8 | 0.00 | 1.07 | 1.07 | 70 | 1012.0 |
| 20260502201942 | 14 | 302 | 3.2 | 6.4 | 0.00 | 1.07 | 1.07 | 70 | 1012.2 |
| 20260502201438 | 14 | 334 | 1.6 | 1.6 | 0.00 | 1.07 | 1.07 | 72 | 1012.1 |
| 20260502200935 | 14 | 358 | 1.6 | 3.2 | 0.00 | 1.07 | 1.07 | 70 | 1012.2 |